OMA611 OOMS-OMDB

Flight info

Callsign OMA611
Flight time 0h 40m
Altitude 20000
Route MCT T508 SOLUD P574 IMPED
Aircraft B38M/M-SDE1FGHILORVWXY/HB1

Departure

Time 2026-04-26 15:17
Airport Muscat International Airport (OOMS)

Arrival

Time 2026-04-26 15:58
Airport Dubai International Airport (OMDB)
Time Latitude Longitude Altitude Speed Heading
2026-04-26 14:56 23.60414 58.28569 52 ft 0 kts 85°
2026-04-26 15:07 23.60413 58.28549 52 ft 2 kts 85°
2026-04-26 15:07 23.60412 58.28533 52 ft 2 kts 84°
2026-04-26 15:07 23.60410 58.28518 52 ft 2 kts 85°
2026-04-26 15:08 23.60410 58.28509 52 ft 1 kts 85°
2026-04-26 15:08 23.60407 58.28494 52 ft 2 kts 69°
2026-04-26 15:08 23.60401 58.28480 52 ft 2 kts 56°
2026-04-26 15:08 23.60392 58.28467 52 ft 2 kts 41°
2026-04-26 15:09 23.60380 58.28458 52 ft 2 kts 26°
2026-04-26 15:09 23.60365 58.28452 52 ft 2 kts 11°
2026-04-26 15:09 23.60352 58.28451 52 ft 0 kts 358°
2026-04-26 15:09 23.60346 58.28451 52 ft 1 kts 355°
2026-04-26 15:10 23.60345 58.28451 52 ft 0 kts 355°
2026-04-26 15:11 23.60348 58.28451 52 ft 0 kts 355°
2026-04-26 15:12 23.60362 58.28450 52 ft 3 kts 355°
2026-04-26 15:12 23.60392 58.28447 52 ft 5 kts 355°
2026-04-26 15:12 23.60440 58.28442 52 ft 8 kts 354°
2026-04-26 15:12 23.60504 58.28437 52 ft 9 kts
2026-04-26 15:13 23.60549 58.28489 52 ft 10 kts 79°
2026-04-26 15:13 23.60556 58.28578 52 ft 13 kts 84°
2026-04-26 15:13 23.60565 58.28685 52 ft 15 kts 85°
2026-04-26 15:13 23.60575 58.28810 52 ft 17 kts 85°
2026-04-26 15:14 23.60586 58.28948 52 ft 19 kts 84°
2026-04-26 15:14 23.60598 58.29097 52 ft 19 kts 85°
2026-04-26 15:14 23.60609 58.29235 52 ft 17 kts 84°
2026-04-26 15:14 23.60619 58.29364 52 ft 16 kts 85°
2026-04-26 15:15 23.60628 58.29482 52 ft 15 kts 85°
2026-04-26 15:15 23.60646 58.29590 52 ft 13 kts 60°
2026-04-26 15:15 23.60713 58.29607 52 ft 9 kts 355°
2026-04-26 15:15 23.60775 58.29602 52 ft 8 kts 356°
2026-04-26 15:16 23.60828 58.29597 52 ft 7 kts 355°
2026-04-26 15:16 23.60874 58.29593 52 ft 6 kts 354°
2026-04-26 15:16 23.60895 58.29578 52 ft 3 kts 286°
2026-04-26 15:16 23.60888 58.29466 52 ft 39 kts 265°
2026-04-26 15:17 23.60843 58.28910 52 ft 105 kts 265°
2026-04-26 15:17 23.60793 58.28294 52 ft 142 kts 265°
2026-04-26 15:17 23.60624 58.26656 409 ft 172 kts 265°
2026-04-26 15:17 23.60491 58.25332 988 ft 176 kts 265°
2026-04-26 15:18 23.60349 58.24017 1568 ft 180 kts 266°
2026-04-26 15:18 23.60205 58.22641 2073 ft 188 kts 265°
2026-04-26 15:18 23.60038 58.21119 2266 ft 211 kts 265°
2026-04-26 15:18 23.59861 58.19464 2517 ft 230 kts 267°
2026-04-26 15:19 23.60125 58.17681 2894 ft 243 kts 296°
2026-04-26 15:19 23.60947 58.16046 3537 ft 254 kts 303°
2026-04-26 15:19 23.61919 58.14375 4118 ft 267 kts 304°
2026-04-26 15:19 23.62938 58.12655 4917 ft 272 kts 305°
2026-04-26 15:20 23.63969 58.10916 5696 ft 277 kts 305°
2026-04-26 15:20 23.65013 58.09156 6454 ft 282 kts 305°
2026-04-26 15:20 23.66075 58.07365 7193 ft 286 kts 306°
2026-04-26 15:20 23.67172 58.05514 7925 ft 291 kts 306°
2026-04-26 15:21 23.68273 58.03656 8629 ft 296 kts 306°
2026-04-26 15:21 23.69394 58.01763 9317 ft 301 kts 306°
2026-04-26 15:21 23.70546 57.99818 10000 ft 306 kts 305°
2026-04-26 15:21 23.71718 57.97840 10333 ft 324 kts 305°
2026-04-26 15:22 23.72976 57.95719 10604 ft 342 kts 305°
2026-04-26 15:22 23.74279 57.93516 11234 ft 348 kts 304°
2026-04-26 15:22 23.75594 57.91291 11875 ft 353 kts 304°
2026-04-26 15:22 23.76932 57.89025 12534 ft 357 kts 304°
2026-04-26 15:23 23.78282 57.86738 13202 ft 361 kts 304°
2026-04-26 15:23 23.79647 57.84423 13869 ft 366 kts 304°
2026-04-26 15:23 23.81022 57.82090 14531 ft 370 kts 303°
2026-04-26 15:23 23.82422 57.79715 15199 ft 374 kts 303°
2026-04-26 15:24 23.83843 57.77302 15872 ft 378 kts 303°
2026-04-26 15:24 23.85259 57.74896 16524 ft 382 kts 303°
2026-04-26 15:24 23.86698 57.72450 17164 ft 385 kts 302°
2026-04-26 15:24 23.88153 57.69974 17799 ft 389 kts 302°
2026-04-26 15:25 23.89618 57.67482 18428 ft 392 kts 302°
2026-04-26 15:25 23.90590 57.65827 18838 ft 394 kts 302°
2026-04-26 15:25 23.92563 57.62467 19643 ft 398 kts 301°
2026-04-26 15:25 23.94091 57.59861 19794 ft 409 kts 301°
2026-04-26 15:26 23.95636 57.57225 19809 ft 419 kts 301°
2026-04-26 15:26 23.97205 57.54548 19807 ft 419 kts 301°
2026-04-26 15:26 23.98774 57.51872 19807 ft 419 kts 302°
2026-04-26 15:26 24.00449 57.49250 19810 ft 419 kts 306°
2026-04-26 15:27 24.02228 57.46723 19808 ft 420 kts 307°
2026-04-26 15:27 24.04042 57.44183 19808 ft 420 kts 307°
2026-04-26 15:27 24.05852 57.41653 19808 ft 419 kts 307°
2026-04-26 15:27 24.07656 57.39129 19808 ft 420 kts 307°
2026-04-26 15:28 24.09436 57.36638 19808 ft 420 kts 307°
2026-04-26 15:28 24.11262 57.34081 19803 ft 420 kts 307°
2026-04-26 15:28 24.13087 57.31526 19804 ft 419 kts 307°
2026-04-26 15:28 24.14873 57.29024 19807 ft 420 kts 307°
2026-04-26 15:29 24.16702 57.26460 19810 ft 420 kts 307°
2026-04-26 15:29 24.18516 57.23917 19813 ft 420 kts 307°
2026-04-26 15:29 24.22145 57.18824 19819 ft 421 kts 307°
2026-04-26 15:30 24.25727 57.13791 19825 ft 421 kts 307°
2026-04-26 15:30 24.27526 57.11261 19828 ft 421 kts 307°
2026-04-26 15:30 24.29330 57.08723 19829 ft 420 kts 307°
2026-04-26 15:31 24.31140 57.06176 19829 ft 420 kts 307°
2026-04-26 15:31 24.34699 57.01163 19830 ft 419 kts 307°
2026-04-26 15:31 24.36482 56.98649 19830 ft 419 kts 307°
2026-04-26 15:32 24.38854 56.95304 19830 ft 418 kts 307°
2026-04-26 15:32 24.41823 56.91111 19830 ft 418 kts 307°
2026-04-26 15:32 24.43614 56.88582 19831 ft 417 kts 307°
2026-04-26 15:33 24.45393 56.86066 19831 ft 417 kts 307°
2026-04-26 15:33 24.47152 56.83580 19831 ft 417 kts 307°
2026-04-26 15:33 24.48929 56.81065 19831 ft 417 kts 307°
2026-04-26 15:33 24.50722 56.78525 19831 ft 417 kts 307°
2026-04-26 15:34 24.52491 56.76021 19831 ft 417 kts 307°
2026-04-26 15:34 24.54260 56.73514 19831 ft 417 kts 307°
2026-04-26 15:34 24.56047 56.70985 19832 ft 417 kts 307°
2026-04-26 15:34 24.57826 56.68469 19832 ft 417 kts 307°
2026-04-26 15:35 24.59606 56.65950 19826 ft 411 kts 307°
2026-04-26 15:35 24.61322 56.63523 19830 ft 400 kts 307°
2026-04-26 15:35 24.63002 56.61144 19611 ft 390 kts 307°
2026-04-26 15:35 24.64640 56.58823 19417 ft 377 kts 307°
2026-04-26 15:36 24.66227 56.56573 19339 ft 362 kts 307°
2026-04-26 15:36 24.67749 56.54416 19264 ft 348 kts 307°
2026-04-26 15:36 24.69190 56.52372 19190 ft 335 kts 307°
2026-04-26 15:36 24.70602 56.50365 18934 ft 330 kts 308°
2026-04-26 15:37 24.71994 56.48386 18565 ft 328 kts 308°
2026-04-26 15:37 24.73398 56.46390 18203 ft 326 kts 308°
2026-04-26 15:37 24.74781 56.44422 17851 ft 324 kts 308°
2026-04-26 15:37 24.76162 56.42456 17493 ft 323 kts 308°
2026-04-26 15:38 24.77510 56.40537 17150 ft 321 kts 308°
2026-04-26 15:38 24.78871 56.38598 16801 ft 319 kts 308°
2026-04-26 15:38 24.80222 56.36662 16458 ft 317 kts 308°
2026-04-26 15:38 24.81515 56.34759 16120 ft 315 kts 307°
2026-04-26 15:39 24.82504 56.33295 15859 ft 314 kts 307°
2026-04-26 15:39 24.83664 56.31576 15553 ft 312 kts 307°
2026-04-26 15:39 24.84949 56.29672 15216 ft 310 kts 307°
2026-04-26 15:39 24.85812 56.28391 14988 ft 308 kts 307°
2026-04-26 15:40 24.87498 56.25891 14391 ft 304 kts 307°
2026-04-26 15:40 24.88608 56.23914 13898 ft 303 kts 300°
2026-04-26 15:40 24.89635 56.21903 13422 ft 300 kts 300°
2026-04-26 15:40 24.90665 56.19901 12950 ft 298 kts 301°
2026-04-26 15:41 24.91670 56.17945 12490 ft 295 kts 301°
2026-04-26 15:41 24.92682 56.15976 12025 ft 292 kts 301°
2026-04-26 15:41 24.93669 56.14053 11570 ft 290 kts 301°
2026-04-26 15:41 24.94662 56.12120 11113 ft 287 kts 301°
2026-04-26 15:42 24.95636 56.10222 10667 ft 285 kts 301°
2026-04-26 15:42 24.96613 56.08318 10217 ft 282 kts 301°
2026-04-26 15:42 24.97640 56.06527 10010 ft 276 kts 312°
2026-04-26 15:42 24.98918 56.04928 9992 ft 280 kts 314°
2026-04-26 15:43 25.00262 56.03293 10007 ft 290 kts 312°
2026-04-26 15:43 25.01607 56.01651 9991 ft 289 kts 312°
2026-04-26 15:43 25.04294 55.98363 9994 ft 289 kts 312°
2026-04-26 15:44 25.05641 55.96715 9994 ft 290 kts 311°
2026-04-26 15:44 25.08337 55.93411 9995 ft 290 kts 311°
2026-04-26 15:44 25.09694 55.91745 9995 ft 290 kts 311°
2026-04-26 15:45 25.12285 55.88565 9994 ft 289 kts 311°
2026-04-26 15:45 25.13640 55.86901 9997 ft 289 kts 311°
2026-04-26 15:46 25.16149 55.83571 9460 ft 283 kts 300°
2026-04-26 15:46 25.17183 55.81737 9160 ft 281 kts 300°
2026-04-26 15:46 25.18217 55.79887 8863 ft 279 kts 300°
2026-04-26 15:46 25.18898 55.78666 8668 ft 278 kts 300°
2026-04-26 15:47 25.20241 55.76255 8283 ft 275 kts 299°
2026-04-26 15:47 25.22220 55.72695 7710 ft 271 kts 299°
2026-04-26 15:47 25.23208 55.70918 7421 ft 270 kts 299°
2026-04-26 15:48 25.24187 55.69165 7134 ft 268 kts 299°
2026-04-26 15:48 25.25158 55.67425 6848 ft 266 kts 299°
2026-04-26 15:48 25.26127 55.65690 6567 ft 264 kts 299°
2026-04-26 15:48 25.27084 55.63972 6290 ft 262 kts 299°
2026-04-26 15:49 25.28022 55.62287 6017 ft 260 kts 299°
2026-04-26 15:49 25.28952 55.60591 5737 ft 258 kts 294°
2026-04-26 15:49 25.29296 55.58796 5406 ft 251 kts 261°
2026-04-26 15:49 25.28680 55.57026 5098 ft 245 kts 233°
2026-04-26 15:50 25.27483 55.55721 4791 ft 244 kts 214°
2026-04-26 15:50 25.25951 55.55017 4449 ft 246 kts 186°
2026-04-26 15:50 25.24265 55.55284 4153 ft 248 kts 161°
2026-04-26 15:50 25.22772 55.56227 3812 ft 252 kts 142°
2026-04-26 15:51 25.21628 55.57712 3513 ft 254 kts 125°
2026-04-26 15:51 25.20685 55.59375 3211 ft 254 kts 124°
2026-04-26 15:51 25.19770 55.61027 2940 ft 253 kts 123°
2026-04-26 15:51 25.18728 55.62569 2621 ft 250 kts 142°
2026-04-26 15:52 25.17206 55.63397 2289 ft 244 kts 173°
2026-04-26 15:52 25.15565 55.63260 2061 ft 238 kts 202°
2026-04-26 15:52 25.14138 55.62394 2008 ft 229 kts 226°
2026-04-26 15:52 25.13516 55.61456 2039 ft 227 kts 246°
2026-04-26 15:53 25.13213 55.59288 2027 ft 211 kts 277°
2026-04-26 15:53 25.13662 55.57789 2048 ft 201 kts 294°
2026-04-26 15:53 25.14282 55.56471 1993 ft 182 kts 297°
2026-04-26 15:53 25.14885 55.55291 2021 ft 175 kts 297°
2026-04-26 15:54 25.15486 55.54157 2018 ft 169 kts 298°
2026-04-26 15:54 25.16083 55.53049 2019 ft 166 kts 299°
2026-04-26 15:54 25.16678 55.51965 2021 ft 168 kts 299°
2026-04-26 15:54 25.17271 55.50892 2018 ft 167 kts 300°
2026-04-26 15:55 25.17857 55.49834 2014 ft 158 kts 299°
2026-04-26 15:55 25.18430 55.48807 1984 ft 158 kts 299°
2026-04-26 15:55 25.18988 55.47797 1782 ft 153 kts 299°
2026-04-26 15:55 25.19545 55.46793 1585 ft 154 kts 299°
2026-04-26 15:56 25.20092 55.45804 1384 ft 155 kts 299°
2026-04-26 15:56 25.20651 55.44793 1175 ft 154 kts 299°
2026-04-26 15:56 25.21176 55.43845 970 ft 154 kts 299°
2026-04-26 15:56 25.21731 55.42855 760 ft 153 kts 300°
2026-04-26 15:57 25.22293 55.41868 553 ft 152 kts 300°
2026-04-26 15:57 25.22835 55.40879 360 ft 151 kts 299°
2026-04-26 15:57 25.23369 55.39901 177 ft 149 kts 300°
2026-04-26 15:57 25.23720 55.39259 59 ft 148 kts 299°
2026-04-26 15:58 25.24326 55.38158 37 ft 85 kts 301°
2026-04-26 15:58 25.24539 55.37776 37 ft 47 kts 300°
2026-04-26 15:58 25.24674 55.37529 37 ft 29 kts 301°
2026-04-26 15:58 25.24759 55.37350 37 ft 23 kts 290°
2026-04-26 15:59 25.24785 55.37204 37 ft 16 kts 279°
2026-04-26 15:59 25.24790 55.37096 37 ft 9 kts 272°
2026-04-26 15:59 25.24791 55.37031 37 ft 7 kts 271°
2026-04-26 15:59 25.24793 55.36976 37 ft 6 kts 278°
2026-04-26 16:00 25.24810 55.36927 37 ft 8 kts 295°
2026-04-26 16:00 25.24846 55.36845 37 ft 16 kts 294°
2026-04-26 16:00 25.24874 55.36705 37 ft 19 kts 282°
2026-04-26 16:00 25.24936 55.36581 37 ft 19 kts 300°
2026-04-26 16:01 25.25002 55.36447 37 ft 20 kts 297°
2026-04-26 16:01 25.25073 55.36333 37 ft 17 kts 303°
2026-04-26 16:01 25.25138 55.36215 37 ft 18 kts 301°
2026-04-26 16:01 25.25206 55.36092 37 ft 20 kts 302°
2026-04-26 16:02 25.25280 55.35956 37 ft 21 kts 300°
2026-04-26 16:02 25.25360 55.35815 37 ft 22 kts 301°
2026-04-26 16:02 25.25439 55.35667 37 ft 21 kts 307°
2026-04-26 16:02 25.25495 55.35573 37 ft 22 kts 301°
2026-04-26 16:03 25.25596 55.35389 37 ft 18 kts 301°
2026-04-26 16:03 25.25646 55.35300 37 ft 7 kts 302°
2026-04-26 16:03 25.25651 55.35290 37 ft 0 kts 302°
2026-04-26 16:04 25.25655 55.35284 37 ft 2 kts 302°
2026-04-26 16:04 25.25668 55.35261 37 ft 4 kts 302°
2026-04-26 16:05 25.25691 55.35220 37 ft 7 kts 301°
2026-04-26 16:05 25.25722 55.35161 37 ft 10 kts 301°
2026-04-26 16:05 25.25764 55.35084 37 ft 12 kts 301°
2026-04-26 16:05 25.25813 55.34994 37 ft 15 kts 301°
2026-04-26 16:06 25.25869 55.34894 37 ft 17 kts 300°
2026-04-26 16:06 25.25940 55.34763 37 ft 18 kts 300°
2026-04-26 16:06 25.26005 55.34650 37 ft 16 kts 302°
2026-04-26 16:06 25.26062 55.34542 37 ft 15 kts 299°
2026-04-26 16:07 25.26116 55.34448 37 ft 14 kts 300°
2026-04-26 16:07 25.26169 55.34354 37 ft 13 kts 302°
2026-04-26 16:07 25.26215 55.34271 37 ft 12 kts 301°
2026-04-26 16:07 25.26255 55.34196 37 ft 10 kts 298°
2026-04-26 16:08 25.26265 55.34147 37 ft 8 kts 261°
2026-04-26 16:08 25.26249 55.34124 37 ft 7 kts 214°
2026-04-26 16:08 25.26184 55.34082 37 ft 8 kts 205°
2026-04-26 16:08 25.26140 55.34086 37 ft 7 kts 157°
2026-04-26 16:09 25.26099 55.34106 37 ft 4 kts 156°
2026-04-26 16:09 25.26078 55.34116 37 ft 0 kts 157°